Theta_e
335 342 347 350 352 353 353 353 354 354 354 353 352 352 351 351 351 349 350 352 352 352 352 352 352 352 353 352 352 351 352 352 352 352 352 352 353 351 351 353 353 351 352
337 343 349 350 353 354 354 353 354 353 353 353 352 351 351 351 350 350 350 351 350 350 351 351 351 351 351 351 350 350 350 349 349 348 347 347 349 352 351 353 352 351 351
338 345 348 352 354 354 353 352 352 351 351 353 353 352 350 349 348 348 348 348 348 349 349 349 350 350 350 348 348 348 347 347 346 346 347 348 350 352 352 353 353 352 350
341 345 348 352 353 353 353 352 351 351 352 352 352 351 350 349 348 348 347 347 347 345 343 347 348 347 347 347 346 346 346 345 345 344 344 344 345 350 351 351 351 350 350
341 345 350 352 352 352 352 351 350 350 350 350 349 349 349 349 346 344 344 346 348 348 347 347 347 347 347 346 346 345 344 344 344 341 341 343 344 346 350 350 350 350 351
342 347 349 351 351 351 350 350 350 349 349 348 348 349 348 346 344 344 344 343 343 347 346 347 346 346 345 344 344 343 342 342 343 342 339 342 341 345 347 350 350 350 348
344 347 349 350 350 350 349 349 349 349 349 348 347 347 347 346 344 345 344 343 342 343 345 346 345 344 342 342 342 341 340 339 340 344 344 343 346 345 346 348 349 349 348
343 346 348 346 346 347 348 348 347 348 347 346 346 345 344 345 344 344 344 343 342 343 343 344 344 343 342 341 340 338 337 338 337 341 343 344 346 347 347 346 348 348 348
344 346 347 347 345 343 344 345 345 345 344 342 340 338 338 339 341 341 341 342 342 342 342 341 342 342 341 339 337 335 335 336 340 341 337 342 344 346 347 347 347 347 347
343 343 345 345 345 344 345 340 338 336 334 332 328 325 323 325 327 332 334 336 339 340 340 340 340 338 336 334 333 331 330 334 337 341 342 342 346 345 345 345 346 346 346
334 337 343 343 342 342 337 332 332 330 328 325 323 320 317 313 315 317 319 325 331 333 333 333 332 331 328 328 327 327 326 330 333 335 339 341 344 345 346 345 345 344 344
329 329 335 336 334 329 325 330 322 317 318 317 319 320 319 312 309 308 310 313 313 316 320 323 323 323 326 321 318 321 325 324 325 328 333 340 342 343 344 344 344 343 344
325 323 325 326 331 328 326 320 318 314 311 307 309 313 315 317 316 313 311 309 310 310 313 315 316 315 313 314 312 315 317 319 320 321 325 335 341 342 340 342 342 343 344
319 316 317 319 318 322 323 318 316 312 312 303 305 306 308 311 311 309 307 305 307 311 314 317 312 308 306 305 303 305 308 311 312 312 316 326 334 339 342 342 341 342 342
313 312 312 314 314 313 313 313 313 313 306 304 303 300 300 297 302 301 301 302 304 309 314 316 310 304 302 301 300 298 297 298 300 304 305 315 325 331 338 341 341 341 341
310 309 310 311 312 312 310 309 306 305 300 304 299 296 298 297 294 296 297 300 303 308 311 313 311 301 300 299 297 296 295 295 296 296 298 300 313 322 329 338 340 341 340
310 308 305 306 308 307 305 303 301 300 299 296 297 297 296 298 297 295 294 296 299 304 305 307 307 303 297 297 295 294 294 294 294 294 295 295 298 308 319 327 335 337 338
308 306 305 304 302 305 302 300 299 296 294 294 295 295 295 296 298 298 295 294 296 300 302 304 303 301 298 294 292 292 292 292 292 293 295 295 296 297 302 314 322 327 333
309 305 302 301 301 299 303 298 297 295 296 294 294 294 294 295 296 296 296 293 294 295 296 296 296 300 296 293 291 292 291 291 291 292 293 296 297 296 296 302 308 315 321
307 303 300 300 297 299 295 297 294 297 293 298 294 294 294 295 295 295 295 294 293 293 291 292 292 291 292 292 292 293 293 292 293 293 294 295 297 298 297 297 299 301 312
302 299 297 296 297 294 296 292 293 291 292 292 293 293 293 293 294 295 294 293 293 291 290 289 289 288 289 291 290 291 292 293 293 293 294 294 295 296 297 299 299 301 303
300 298 296 295 295 297 295 294 293 293 290 292 292 294 293 293 293 293 293 293 291 290 289 289 289 288 287 288 289 290 287 290 291 291 292 292 292 294 294 295 297 299 302
298 296 295 294 295 295 292 292 292 289 289 287 288 289 291 292 292 292 293 292 291 291 289 289 290 290 286 286 289 290 287 291 289 291 290 291 291 292 293 293 295 297 299
296 296 295 294 293 292 292 289 289 292 289 288 286 287 288 290 291 292 292 292 291 291 290 289 290 290 290 286 287 288 290 292 291 286 290 290 290 290 292 292 293 295 297
294 293 293 292 291 291 291 292 289 286 287 286 286 286 286 287 288 289 290 290 290 290 289 289 289 290 290 289 288 287 288 289 291 292 287 287 289 290 291 292 293 293 294
292 291 291 290 290 290 290 290 288 286 285 285 284 284 284 285 286 287 287 287 287 287 288 288 288 289 290 290 290 289 289 289 289 291 288 288 288 288 290 291 292 293 294
Wind_Speed
10 16 15 14 14 17 17 15 14 13 13 14 16 16 14 13 13 13 13 15 16 17 18 18 18 19 19 19 19 18 17 18 17 16 14 14 16 17 14 9 14 17 17
16 17 13 14 14 17 16 15 14 13 14 16 16 16 15 15 15 14 13 16 17 18 20 19 18 20 20 20 20 19 18 18 16 13 13 12 12 15 15 13 15 16 16
17 15 15 13 16 17 16 15 13 13 15 15 16 17 16 16 15 15 15 17 19 20 19 19 19 19 19 19 18 18 17 16 12 8 7 11 14 15 14 12 14 15 16
15 13 15 12 17 16 16 14 12 12 13 15 17 17 18 19 19 20 21 19 20 21 17 15 16 17 17 18 17 16 16 14 8 2 9 11 12 13 14 14 13 15 15
13 12 13 15 16 16 16 14 13 11 11 12 17 18 18 20 19 17 17 20 20 20 19 18 16 17 18 17 16 16 14 11 5 10 9 9 10 11 13 13 13 11 12
13 12 12 14 15 15 15 14 13 12 12 13 17 18 19 20 17 16 16 17 15 16 18 19 18 19 19 17 15 15 13 7 6 11 10 8 12 13 13 14 14 13 13
12 12 14 14 16 15 15 14 14 14 15 16 17 18 22 19 17 16 15 15 15 16 18 19 18 18 18 19 16 15 13 9 10 10 8 10 12 14 14 13 14 14 15
11 13 14 14 17 18 18 17 17 18 18 17 18 18 18 20 19 19 17 15 15 15 16 18 18 18 19 20 18 16 15 7 9 9 10 9 11 14 13 13 12 13 12
11 11 13 15 17 18 20 19 19 20 23 26 27 27 26 24 21 20 18 17 14 15 15 15 16 18 18 20 18 18 19 16 11 7 7 8 9 13 12 13 12 11 11
10 9 13 16 16 17 17 22 24 24 25 24 25 25 25 24 24 21 18 17 18 18 18 17 18 19 19 20 17 17 17 14 12 10 8 7 9 11 10 9 11 11 10
6 8 13 13 15 16 17 17 21 24 24 22 21 22 18 10 13 18 20 21 21 20 20 19 18 19 19 18 18 18 16 8 11 8 5 9 11 12 12 9 10 9 10
9 9 12 15 15 17 10 15 13 10 9 10 10 12 12 12 11 12 14 17 17 17 17 16 14 14 11 6 5 10 7 9 8 9 9 13 12 12 11 11 9 7 7
7 8 10 13 16 18 14 8 6 6 6 6 9 8 10 9 8 7 5 4 5 7 6 7 8 8 10 7 8 7 9 9 7 8 17 24 20 11 7 9 7 6 8
5 8 10 12 12 12 10 8 9 7 8 5 6 10 8 6 8 7 5 5 5 4 6 6 6 9 11 12 10 12 12 9 7 7 15 25 25 26 14 11 8 7 8
8 8 9 9 12 10 10 9 8 9 7 7 8 7 6 6 9 7 6 5 5 5 6 7 9 8 10 11 11 10 10 10 10 6 6 26 26 26 27 15 9 9 11
9 10 9 9 10 11 9 10 8 8 7 7 7 8 7 7 7 7 7 6 6 5 5 6 9 8 8 9 11 11 11 9 10 9 8 9 24 27 28 26 24 23 10
10 11 11 10 12 12 13 10 7 7 8 7 7 10 9 7 11 9 5 6 6 6 8 8 9 10 8 8 11 10 9 10 9 10 8 7 8 20 27 29 25 24 23
14 13 13 9 10 13 10 9 8 7 6 6 7 7 9 8 10 12 8 6 6 6 6 7 7 8 8 7 7 8 7 8 9 10 9 7 7 8 14 25 26 25 25
15 15 14 13 13 13 13 9 7 10 10 5 6 6 8 7 8 10 9 6 5 5 6 6 6 6 8 8 8 8 7 7 7 6 8 9 10 9 7 13 22 26 24
13 13 13 10 13 13 10 9 7 8 4 7 6 6 9 6 8 10 9 9 5 6 6 5 9 7 6 6 8 8 7 6 6 7 7 7 8 9 9 9 6 9 22
14 14 13 14 13 11 9 8 6 5 5 5 5 4 8 9 8 9 9 9 6 6 6 8 6 9 6 4 4 7 7 7 8 6 6 6 8 8 9 8 6 5 7
14 14 13 13 13 12 8 5 5 9 5 6 4 7 5 8 8 7 10 9 7 7 7 6 6 3 3 1 1 2 4 3 5 6 5 6 7 6 8 9 9 8 7
14 14 14 14 13 12 12 9 9 9 5 5 4 5 6 7 6 8 7 8 8 6 5 4 4 3 3 2 2 2 3 2 6 3 6 5 6 5 6 7 8 8 8
11 12 14 14 13 13 12 12 11 11 11 5 4 3 6 7 7 7 7 7 6 5 6 4 3 3 3 3 1 4 5 3 3 4 3 4 5 6 6 5 6 7 7
12 12 12 13 12 12 12 12 9 11 8 7 6 8 8 6 7 7 7 7 7 5 5 5 4 5 2 3 2 2 3 3 3 1 4 4 4 4 4 4 5 5 7
11 12 12 13 12 12 11 11 13 15 13 9 7 6 5 5 5 6 7 7 6 6 5 5 4 3 3 4 4 3 1 1 2 2 3 4 4 4 4 4 4 4 4
Wind_Direction
167 159 177 159 170 156 151 150 145 142 141 140 133 128 125 122 120 118 120 116 113 109 107 105 100 97 95 92 88 90 93 87 86 81 80 87 91 91 91 100 109 94 93
152 161 172 166 169 158 154 150 143 144 138 137 135 131 127 119 119 113 114 108 104 105 101 96 97 96 92 89 88 84 84 85 81 88 97 88 79 90 83 66 87 96 94
154 161 173 171 163 157 150 150 147 150 143 134 134 130 125 115 109 108 98 92 92 85 86 93 88 90 89 89 88 88 83 79 70 77 96 88 85 85 90 86 97 97 95
152 161 166 169 155 151 148 149 146 141 141 145 134 129 121 116 110 106 104 96 98 98 85 78 98 95 94 90 87 85 85 79 61 97 97 95 90 82 89 92 90 104 104
155 161 145 152 149 150 147 148 143 143 141 141 134 128 122 113 106 100 94 90 94 103 112 117 116 101 92 86 86 86 81 76 80 88 86 87 93 83 82 91 99 106 102
157 164 135 146 147 147 145 145 142 145 140 144 139 128 121 118 104 98 92 95 89 95 99 95 98 96 89 86 78 79 74 57 101 91 93 96 88 99 90 82 84 97 105
160 156 155 147 142 137 140 135 133 132 127 131 133 132 124 114 108 105 102 101 99 97 97 95 93 92 91 85 75 70 66 33 91 87 84 91 94 101 96 88 85 96 101
166 157 148 148 143 138 131 126 123 122 120 122 120 118 117 108 105 97 99 103 107 102 97 97 94 94 88 82 74 61 47 25 84 80 90 78 90 88 91 97 90 97 102
162 161 155 152 143 132 128 119 114 111 103 97 92 86 81 80 82 84 79 75 103 106 102 97 95 87 83 77 69 62 51 31 71 63 70 87 82 82 88 94 93 90 100
149 136 150 149 150 142 113 106 105 103 102 101 96 89 82 75 71 66 65 67 70 82 88 90 87 83 77 77 68 60 58 57 50 52 35 65 77 84 82 97 96 94 99
117 122 143 138 148 128 113 108 103 106 107 104 97 97 85 80 74 70 61 60 63 71 73 75 78 81 74 69 62 57 54 44 48 34 20 47 70 69 65 96 89 95 101
143 127 135 129 117 113 112 118 107 106 101 102 108 105 101 94 87 82 73 67 64 65 66 70 68 67 77 66 47 47 59 54 43 35 25 35 49 51 61 57 74 81 103
125 115 124 126 137 133 132 123 118 107 102 95 101 104 107 109 104 99 89 67 62 51 77 83 66 56 66 59 56 46 63 48 48 37 27 32 42 42 66 60 67 86 101
106 110 110 126 122 127 129 121 129 121 118 97 93 103 110 107 110 107 102 96 86 88 99 99 80 78 73 69 58 63 59 51 52 44 31 33 37 36 46 45 56 98 107
117 111 113 130 123 124 121 126 128 123 112 108 113 98 99 103 115 112 107 101 95 98 104 106 97 83 78 74 66 63 53 47 42 36 35 33 36 37 33 61 56 89 107
135 125 117 113 121 124 116 118 117 123 112 118 115 91 112 113 112 112 109 104 97 93 94 101 107 92 84 81 73 64 62 54 47 41 38 26 31 37 36 39 53 56 77
148 135 119 139 116 116 113 108 103 116 116 105 103 122 121 115 120 109 97 105 103 95 100 104 101 101 90 82 77 64 57 53 51 45 43 31 18 28 37 36 43 53 56
143 142 133 123 114 116 113 105 112 94 80 108 109 110 111 119 126 117 109 105 107 110 108 109 110 105 98 88 82 65 55 50 48 45 45 37 36 29 26 35 38 45 50
151 144 135 135 124 114 118 106 108 112 119 118 105 110 102 121 120 115 117 107 102 98 102 112 94 109 114 105 98 85 70 58 49 51 52 46 45 42 30 22 34 39 44
139 131 128 127 124 122 107 105 94 101 100 113 122 111 119 123 120 113 117 119 109 105 93 89 109 86 85 105 98 87 80 76 67 50 47 56 49 43 45 36 28 30 40
134 132 134 131 134 127 125 118 120 133 103 97 90 107 124 118 130 124 119 124 118 113 113 109 101 109 96 78 97 87 74 63 60 53 48 48 47 50 45 41 35 35 34
143 138 138 137 140 140 139 110 95 130 96 92 93 107 123 112 117 128 129 131 125 120 124 124 142 112 83 16 9 129 141 125 73 48 48 49 52 52 53 49 49 45 44
146 148 143 144 140 135 121 116 122 99 102 82 99 99 85 94 103 111 117 127 131 130 126 127 113 114 122 61 45 320 142 152 142 70 57 51 54 56 55 55 53 50 49
140 138 138 137 132 134 135 131 169 138 137 126 111 105 83 92 93 102 112 121 124 114 125 126 115 88 104 145 92 46 28 64 165 153 112 78 63 60 57 57 59 57 55
127 130 130 128 129 132 137 151 119 111 106 114 110 100 88 88 83 89 102 110 113 105 108 117 123 128 104 133 115 126 70 60 43 143 141 141 108 77 64 55 59 60 54
114 120 126 125 126 125 128 125 120 123 132 126 113 111 94 86 83 81 94 93 95 102 112 114 101 103 123 124 114 124 136 60 153 130 110 134 124 93 83 79 72 69 60